| time (UTC) | temp F | wind direction | speed MPH | gust MPH | rain 1hr in | rain 24hr in | rain mn in | humidity % | barometer mb |
| 20260505014018 | 55 | 210 | 3.0 | 10.0 | 0.00 | 0.00 | 0.00 | 72 | 1011.3 |
| 20260505013520 | 55 | 179 | 4.0 | 10.0 | 0.00 | 0.00 | 0.00 | 72 | 1011.3 |
| 20260505013037 | 55 | 272 | 3.0 | 8.0 | 0.00 | 0.00 | 0.00 | 72 | 1011.2 |
| 20260505012518 | 55 | 242 | 3.0 | 13.0 | 0.00 | 0.00 | 0.00 | 71 | 1011.2 |
| 20260505012018 | 55 | 203 | 4.0 | 13.0 | 0.00 | 0.00 | 0.00 | 71 | 1011.2 |
| 20260505011538 | 55 | 191 | 5.0 | 14.0 | 0.00 | 0.00 | 0.00 | 70 | 1011.1 |
| 20260505011019 | 56 | 231 | 6.0 | 14.0 | 0.00 | 0.00 | 0.00 | 70 | 1011.0 |
| 20260505010520 | 56 | 165 | 4.0 | 12.0 | 0.00 | 0.00 | 0.00 | 69 | 1010.9 |
| 20260505010041 | 56 | 172 | 4.0 | 14.0 | 0.00 | 0.00 | 0.00 | 69 | 1010.9 |
| 20260505005519 | 56 | 216 | 3.0 | 14.0 | 0.00 | 0.00 | 0.00 | 68 | 1010.9 |
| 20260505005019 | 56 | 207 | 5.0 | 14.0 | 0.00 | 0.00 | 0.00 | 67 | 1010.7 |
| 20260505004538 | 56 | 192 | 4.0 | 14.0 | 0.00 | 0.00 | 0.00 | 67 | 1010.5 |
| 20260505004018 | 56 | 221 | 5.0 | 14.0 | 0.00 | 0.00 | 0.00 | 66 | 1010.3 |
| 20260505003521 | 56 | 183 | 4.0 | 13.0 | 0.00 | 0.00 | 0.00 | 65 | 1010.4 |
| 20260505003037 | 57 | 214 | 6.0 | 13.0 | 0.00 | 0.00 | 0.00 | 65 | 1010.2 |
| 20260505002518 | 57 | 173 | 4.0 | 12.0 | 0.00 | 0.00 | 0.00 | 64 | 1010.1 |
| 20260505002018 | 57 | 247 | 4.0 | 12.0 | 0.00 | 0.00 | 0.00 | 63 | 1010.0 |
| 20260505001539 | 57 | 207 | 4.0 | 16.0 | 0.00 | 0.00 | 0.00 | 62 | 1009.8 |
| 20260505001018 | 57 | 181 | 5.0 | 16.0 | 0.00 | 0.00 | 0.00 | 61 | 1009.8 |
| 20260505000521 | 58 | 201 | 4.0 | 14.0 | 0.00 | 0.00 | 0.00 | 60 | 1009.7 |
| 20260505000048 | 58 | 214 | 5.0 | 14.0 | 0.00 | 0.00 | 0.00 | 60 | 1009.6 |
| 20260504235518 | 58 | 130 | 5.0 | 13.0 | 0.00 | 0.00 | 0.00 | 59 | 1009.6 |
| 20260504235018 | 58 | 188 | 5.0 | 13.0 | 0.00 | 0.00 | 0.00 | 59 | 1009.4 |
| 20260504234536 | 58 | 187 | 5.0 | 13.0 | 0.00 | 0.00 | 0.00 | 59 | 1009.4 |
| 20260504234019 | 58 | 232 | 5.0 | 15.0 | 0.00 | 0.00 | 0.00 | 59 | 1009.4 |
| 20260504233518 | 59 | 222 | 5.0 | 15.0 | 0.00 | 0.00 | 0.00 | 58 | 1009.3 |
| 20260504233035 | 59 | 207 | 6.0 | 14.0 | 0.00 | 0.00 | 0.00 | 58 | 1009.3 |
| 20260504232521 | 59 | 192 | 5.0 | 17.0 | 0.00 | 0.00 | 0.00 | 57 | 1009.2 |
| 20260504232020 | 60 | 214 | 5.0 | 17.0 | 0.00 | 0.00 | 0.00 | 56 | 1009.1 |
| 20260504231538 | 60 | 173 | 4.0 | 14.0 | 0.00 | 0.00 | 0.00 | 56 | 1009.0 |
| 20260504231021 | 60 | 178 | 7.0 | 16.0 | 0.00 | 0.00 | 0.00 | 55 | 1008.9 |
| 20260504230519 | 61 | 162 | 7.0 | 16.0 | 0.00 | 0.00 | 0.00 | 54 | 1008.9 |
| 20260504230040 | 61 | 214 | 6.0 | 14.0 | 0.00 | 0.00 | 0.00 | 53 | 1008.8 |
| 20260504225521 | 62 | 168 | 6.0 | 13.0 | 0.00 | 0.00 | 0.00 | 52 | 1008.7 |
| 20260504225021 | 62 | 233 | 5.0 | 14.0 | 0.00 | 0.00 | 0.00 | 52 | 1008.6 |
| 20260504224538 | 62 | 219 | 4.0 | 14.0 | 0.00 | 0.00 | 0.00 | 52 | 1008.5 |
| 20260504224018 | 62 | 209 | 5.0 | 16.0 | 0.00 | 0.00 | 0.00 | 52 | 1008.5 |
| 20260504223519 | 63 | 192 | 8.0 | 18.0 | 0.00 | 0.00 | 0.00 | 51 | 1008.3 |
| 20260504223037 | 63 | 141 | 8.0 | 18.0 | 0.00 | 0.00 | 0.00 | 50 | 1008.4 |
| 20260504222520 | 63 | 166 | 6.0 | 19.0 | 0.00 | 0.00 | 0.00 | 51 | 1008.2 |
| 20260504222018 | 63 | 136 | 6.0 | 19.0 | 0.00 | 0.00 | 0.00 | 51 | 1008.2 |
| 20260504221542 | 63 | 167 | 9.0 | 19.0 | 0.00 | 0.00 | 0.00 | 50 | 1008.2 |
| 20260504221019 | 64 | 193 | 7.0 | 19.0 | 0.00 | 0.00 | 0.00 | 50 | 1008.2 |
| 20260504220519 | 64 | 223 | 6.0 | 19.0 | 0.00 | 0.00 | 0.00 | 50 | 1008.1 |
| 20260504220048 | 64 | 234 | 5.0 | 22.0 | 0.00 | 0.00 | 0.00 | 51 | 1008.1 |
| 20260504215519 | 64 | 191 | 6.0 | 22.0 | 0.00 | 0.00 | 0.00 | 50 | 1008.1 |
| 20260504215019 | 64 | 217 | 7.0 | 18.0 | 0.00 | 0.00 | 0.00 | 49 | 1008.2 |
| 20260504214538 | 65 | 193 | 8.0 | 18.0 | 0.00 | 0.00 | 0.00 | 49 | 1008.3 |
| 20260504214018 | 65 | 229 | 7.0 | 15.0 | 0.00 | 0.00 | 0.00 | 49 | 1008.1 |
| 20260504213520 | 65 | 182 | 6.0 | 20.0 | 0.00 | 0.00 | 0.00 | 49 | 1008.1 |
| 20260504213053 | 65 | 203 | 9.0 | 20.0 | 0.00 | 0.00 | 0.00 | 48 | 1008.0 |
| 20260504212519 | 65 | 231 | 7.0 | 20.0 | 0.00 | 0.00 | 0.00 | 48 | 1008.1 |
| 20260504212022 | 65 | 209 | 8.0 | 20.0 | 0.00 | 0.00 | 0.00 | 48 | 1008.0 |
| 20260504211541 | 66 | 223 | 6.0 | 16.0 | 0.00 | 0.00 | 0.00 | 47 | 1008.0 |
| 20260504211018 | 66 | 176 | 8.0 | 18.0 | 0.00 | 0.00 | 0.00 | 46 | 1007.9 |
| 20260504210519 | 66 | 250 | 6.0 | 18.0 | 0.00 | 0.00 | 0.00 | 46 | 1007.9 |
| 20260504210038 | 67 | 67 | 7.0 | 16.0 | 0.00 | 0.00 | 0.00 | 44 | 1007.9 |
| 20260504205519 | 67 | 181 | 8.0 | 15.0 | 0.00 | 0.00 | 0.00 | 44 | 1007.9 |
| 20260504205019 | 67 | 76 | 8.0 | 15.0 | 0.00 | 0.00 | 0.00 | 44 | 1007.8 |
| 20260504204539 | 68 | 201 | 6.0 | 18.0 | 0.00 | 0.00 | 0.00 | 43 | 1007.8 |
| 20260504204019 | 68 | 282 | 7.0 | 18.0 | 0.00 | 0.00 | 0.00 | 42 | 1007.8 |
| 20260504203520 | 67 | 208 | 6.0 | 17.0 | 0.00 | 0.00 | 0.00 | 41 | 1007.7 |
| 20260504203035 | 68 | 220 | 8.0 | 20.0 | 0.00 | 0.00 | 0.00 | 41 | 1007.7 |
| 20260504202518 | 68 | 184 | 9.0 | 20.0 | 0.00 | 0.00 | 0.00 | 41 | 1007.7 |
| 20260504202019 | 68 | 86 | 4.0 | 21.0 | 0.00 | 0.00 | 0.00 | 40 | 1007.6 |
| 20260504201539 | 68 | 203 | 7.0 | 21.0 | 0.00 | 0.00 | 0.00 | 41 | 1007.7 |
| 20260504201018 | 68 | 184 | 9.0 | 18.0 | 0.00 | 0.00 | 0.00 | 39 | 1007.7 |
| 20260504200519 | 68 | 184 | 5.0 | 18.0 | 0.00 | 0.00 | 0.00 | 39 | 1007.7 |
| 20260504200038 | 68 | 232 | 9.0 | 18.0 | 0.00 | 0.00 | 0.00 | 39 | 1007.6 |
| 20260504195518 | 68 | 159 | 7.0 | 18.0 | 0.00 | 0.00 | 0.00 | 37 | 1007.6 |
| 20260504195018 | 69 | 201 | 10.0 | 17.0 | 0.00 | 0.00 | 0.00 | 36 | 1007.8 |
| 20260504194538 | 69 | 201 | 6.0 | 15.0 | 0.00 | 0.00 | 0.00 | 36 | 1007.7 |
| 20260504194019 | 70 | 264 | 6.0 | 17.0 | 0.00 | 0.00 | 0.00 | 36 | 1007.8 |
| 20260504193518 | 70 | 251 | 4.0 | 17.0 | 0.00 | 0.00 | 0.00 | 35 | 1007.7 |
| 20260504193053 | 70 | 206 | 4.0 | 14.0 | 0.00 | 0.00 | 0.00 | 35 | 1007.7 |
| 20260504192518 | 70 | 216 | 7.0 | 14.0 | 0.00 | 0.00 | 0.00 | 34 | 1007.6 |
| 20260504192018 | 70 | 221 | 5.0 | 19.0 | 0.00 | 0.00 | 0.00 | 32 | 1007.7 |
| 20260504191536 | 70 | 263 | 6.0 | 19.0 | 0.00 | 0.00 | 0.00 | 33 | 1007.6 |
| 20260504191018 | 70 | 210 | 5.0 | 16.0 | 0.00 | 0.00 | 0.00 | 32 | 1007.7 |
| 20260504190521 | 69 | 125 | 5.0 | 16.0 | 0.00 | 0.00 | 0.00 | 34 | 1007.7 |
| 20260504190040 | 69 | 75 | 9.0 | 19.0 | 0.00 | 0.00 | 0.00 | 32 | 1007.8 |
| 20260504185518 | 70 | 184 | 8.0 | 19.0 | 0.00 | 0.00 | 0.00 | 33 | 1007.8 |
| 20260504185020 | 70 | 252 | 6.0 | 18.0 | 0.00 | 0.00 | 0.00 | 32 | 1007.9 |
| 20260504184535 | 70 | 224 | 8.0 | 19.0 | 0.00 | 0.00 | 0.00 | 33 | 1007.9 |
| 20260504184022 | 69 | 293 | 8.0 | 25.0 | 0.00 | 0.00 | 0.00 | 33 | 1008.0 |
| 20260504183519 | 69 | 251 | 9.0 | 25.0 | 0.00 | 0.00 | 0.00 | 33 | 1008.1 |
| 20260504183049 | 69 | 321 | 6.0 | 17.0 | 0.00 | 0.00 | 0.00 | 33 | 1008.0 |
| 20260504182518 | 69 | 157 | 5.0 | 17.0 | 0.00 | 0.00 | 0.00 | 33 | 1008.1 |
| 20260504182018 | 70 | 243 | 7.0 | 18.0 | 0.00 | 0.00 | 0.00 | 32 | 1008.3 |
| 20260504181539 | 70 | 212 | 7.0 | 18.0 | 0.00 | 0.00 | 0.00 | 33 | 1008.2 |
| 20260504181018 | 69 | 224 | 8.0 | 18.0 | 0.00 | 0.00 | 0.00 | 33 | 1008.2 |
| 20260504180518 | 68 | 165 | 5.0 | 20.0 | 0.00 | 0.00 | 0.00 | 34 | 1008.2 |
| 20260504180058 | 69 | 227 | 10.0 | 20.0 | 0.00 | 0.00 | 0.00 | 33 | 1008.5 |
| 20260504175521 | 69 | 227 | 8.0 | 24.0 | 0.00 | 0.00 | 0.00 | 32 | 1008.4 |
| 20260504175022 | 69 | 286 | 5.0 | 24.0 | 0.00 | 0.00 | 0.00 | 32 | 1008.4 |
| 20260504174537 | 69 | 257 | 4.0 | 22.0 | 0.00 | 0.00 | 0.00 | 33 | 1008.3 |
| 20260504174018 | 69 | 256 | 7.0 | 22.0 | 0.00 | 0.00 | 0.00 | 34 | 1008.4 |
| 20260504173517 | 69 | 189 | 6.0 | 15.0 | 0.00 | 0.00 | 0.00 | 32 | 1008.2 |
| 20260504173032 | 70 | 250 | 4.0 | 15.0 | 0.00 | 0.00 | 0.00 | 32 | 1008.1 |
| 20260504172520 | 69 | 158 | 5.0 | 26.0 | 0.00 | 0.00 | 0.00 | 33 | 1008.1 |
| 20260504172021 | 69 | 356 | 6.0 | 26.0 | 0.00 | 0.00 | 0.00 | 32 | 1008.2 |
| 20260504171541 | 69 | 112 | 6.0 | 19.0 | 0.00 | 0.00 | 0.00 | 34 | 1008.3 |
| 20260504171018 | 69 | 323 | 10.0 | 19.0 | 0.00 | 0.00 | 0.00 | 33 | 1008.2 |
| 20260504170520 | 69 | 349 | 4.0 | 18.0 | 0.00 | 0.00 | 0.00 | 34 | 1008.2 |
| 20260504151018 | 65 | 181 | 7.0 | 19.0 | 0.00 | 0.00 | 0.00 | 38 | 1009.7 |
| 20260504150518 | 65 | 172 | 7.0 | 19.0 | 0.00 | 0.00 | 0.00 | 38 | 1009.8 |
| 20260504141017 | 64 | 205 | 4.0 | 14.0 | 0.00 | 0.00 | 0.00 | 42 | 1010.4 |
| 20260504140517 | 64 | 236 | 6.0 | 13.0 | 0.00 | 0.00 | 0.00 | 42 | 1010.4 |
| 20260504130521 | 59 | 188 | 2.0 | 10.0 | 0.00 | 0.00 | 0.00 | 49 | 1010.9 |
| 20260504110518 | 44 | 257 | 0.0 | 4.0 | 0.00 | 0.00 | 0.00 | 67 | 1011.2 |
| 20260504100517 | 44 | 217 | 0.0 | 3.0 | 0.00 | 0.00 | 0.00 | 66 | 1011.0 |
| 20260504081538 | 43 | 198 | 0.0 | 0.0 | 0.00 | 0.00 | 0.00 | 66 | 1010.7 |
| 20260504081020 | 43 | 0 | 0.0 | 1.0 | 0.00 | 0.00 | 0.00 | 67 | 1010.7 |
| 20260504080517 | 43 | 198 | 0.0 | 1.0 | 0.00 | 0.00 | 0.00 | 67 | 1010.7 |
| 20260504050518 | 38 | 0 | 0.0 | 0.0 | 0.00 | 0.00 | 0.00 | 70 | 1010.6 |
| 20260504045517 | 39 | 0 | 0.0 | 1.0 | 0.00 | 0.00 | 0.00 | 70 | 1010.5 |
| 20260504045021 | 39 | 0 | 0.0 | 1.0 | 0.00 | 0.00 | 0.00 | 69 | 1010.6 |
| 20260504044538 | 39 | 0 | 0.0 | 1.0 | 0.00 | 0.00 | 0.00 | 69 | 1010.6 |
| 20260504044018 | 39 | 0 | 0.0 | 1.0 | 0.00 | 0.00 | 0.00 | 69 | 1010.5 |
| 20260504043517 | 39 | 217 | 0.0 | 1.0 | 0.00 | 0.00 | 0.00 | 68 | 1010.7 |
| 20260504043043 | 39 | 216 | 0.0 | 1.0 | 0.00 | 0.00 | 0.00 | 68 | 1010.5 |
| 20260504042518 | 40 | 265 | 0.0 | 3.0 | 0.00 | 0.00 | 0.00 | 68 | 1010.6 |
| 20260504042021 | 40 | 214 | 0.0 | 3.0 | 0.00 | 0.00 | 0.00 | 68 | 1010.6 |
| 20260504041534 | 39 | 300 | 0.0 | 1.0 | 0.00 | 0.00 | 0.00 | 68 | 1010.6 |
| 20260504041017 | 39 | 213 | 0.0 | 2.0 | 0.00 | 0.00 | 0.00 | 69 | 1010.5 |
| 20260504040518 | 39 | 0 | 0.0 | 3.0 | 0.00 | 0.00 | 0.00 | 70 | 1010.3 |
| 20260504040039 | 39 | 0 | 0.0 | 3.0 | 0.00 | 0.00 | 0.00 | 70 | 1010.4 |
| 20260504035518 | 39 | 218 | 0.0 | 2.0 | 0.00 | 0.00 | 0.00 | 71 | 1010.2 |
| 20260504035023 | 39 | 217 | 0.0 | 2.0 | 0.00 | 0.00 | 0.00 | 70 | 1010.1 |
| 20260504034544 | 39 | 0 | 0.0 | 2.0 | 0.00 | 0.00 | 0.00 | 70 | 1010.0 |
| 20260504034017 | 38 | 205 | 0.0 | 1.0 | 0.00 | 0.00 | 0.00 | 71 | 1010.0 |
| 20260504033521 | 38 | 209 | 0.0 | 1.0 | 0.00 | 0.00 | 0.00 | 72 | 1010.0 |
| 20260504033041 | 38 | 248 | 0.0 | 3.0 | 0.00 | 0.00 | 0.00 | 73 | 1010.0 |
| 20260504032517 | 38 | 248 | 0.0 | 3.0 | 0.00 | 0.00 | 0.00 | 73 | 1010.1 |
| 20260504032017 | 38 | 0 | 0.0 | 1.0 | 0.00 | 0.00 | 0.00 | 72 | 1010.1 |
| 20260504031538 | 38 | 0 | 0.0 | 1.0 | 0.00 | 0.00 | 0.00 | 72 | 1010.0 |
| 20260504031023 | 38 | 0 | 0.0 | 1.0 | 0.00 | 0.00 | 0.00 | 72 | 1010.0 |
| 20260504030521 | 39 | 0 | 0.0 | 1.0 | 0.00 | 0.00 | 0.00 | 71 | 1010.2 |
| 20260504030042 | 39 | 0 | 0.0 | 1.0 | 0.00 | 0.00 | 0.00 | 70 | 1010.0 |
| 20260504025523 | 39 | 217 | 0.0 | 1.0 | 0.00 | 0.00 | 0.00 | 70 | 1010.1 |
| 20260504025018 | 39 | 0 | 0.0 | 0.0 | 0.00 | 0.00 | 0.00 | 70 | 1010.1 |
| 20260504024532 | 39 | 0 | 0.0 | 1.0 | 0.00 | 0.00 | 0.00 | 71 | 1010.1 |
| 20260504024021 | 39 | 0 | 0.0 | 1.0 | 0.00 | 0.00 | 0.00 | 69 | 1010.0 |
| 20260504023518 | 39 | 0 | 0.0 | 1.0 | 0.00 | 0.00 | 0.00 | 69 | 1010.1 |
| 20260504023040 | 39 | 0 | 0.0 | 1.0 | 0.00 | 0.00 | 0.00 | 69 | 1010.1 |
| 20260504022518 | 40 | 0 | 0.0 | 1.0 | 0.00 | 0.00 | 0.00 | 68 | 1010.0 |
| 20260504022020 | 40 | 219 | 0.0 | 1.0 | 0.00 | 0.00 | 0.00 | 67 | 1010.0 |
| 20260504021537 | 40 | 0 | 0.0 | 0.0 | 0.00 | 0.00 | 0.00 | 67 | 1009.9 |
| 20260504021021 | 40 | 322 | 0.0 | 1.0 | 0.00 | 0.00 | 0.00 | 66 | 1010.0 |
| 20260504020518 | 40 | 10 | 0.0 | 1.0 | 0.00 | 0.00 | 0.00 | 67 | 1009.9 |
| 20260504020046 | 40 | 0 | 0.0 | 1.0 | 0.00 | 0.00 | 0.00 | 65 | 1010.0 |
| 20260504015520 | 40 | 0 | 0.0 | 1.0 | 0.00 | 0.00 | 0.00 | 67 | 1009.9 |
| 20260504015017 | 40 | 0 | 0.0 | 1.0 | 0.00 | 0.00 | 0.00 | 66 | 1009.9 |
| 20260504014539 | 41 | 0 | 0.0 | 1.0 | 0.00 | 0.00 | 0.00 | 65 | 1009.8 |